User: anonymous   Login
Location: Wildlife_Club
(35.6000°N, 81.4330°W)
Time: 21:39:36
(UTC-04:00)
Language:

Cosmos 1782 - Orbit

View from above orbital plane
View from above orbital plane
View from above satellite
View from above satellite

Ground track
Ground track

The orbit data is extracted from the following two-line orbital elements,

1 16986U 86074A   15183.73386945  .00000571  00000-0  38073-4 0  9996
2 16986 082.5084 096.6272 0009728 262.6728 097.3394 15.05148360563170
Epoch (UTC): 02 July 2015 17:36:46
Eccentricity: 0.0009728
inclination: 82.5084°
perigee height: 544 km
apogee height: 558 km
right ascension of ascending node: 96.6272°
argument of perigee: 262.6728°
revolutions per day: 15.05148360
mean anomaly at epoch: 97.3394°
orbit number at epoch: 56317

The dashed part of the orbit path shows where the satellite is in the earth's shadow,  

DLR